Location: Feydey
(46.3431°N, 7.0106°E)
Time: 15:24:50
(UTC+00:00)

Okean 1-7 Rocket - Pass Details

Date: 20 June 2021
Orbit: 616 x 649 km, 82.5° (Epoch: 03 August)

Event Time Altitude Azimuth Distance (km) Brightness Sun altitude
Exits shadow 22:54:15 41° 206° (SSW) 923 4.0 -19.6°
Maximum altitude 22:55:44 73° 279° (W) 664 3.7 -19.7°
Drops below altitude 10° 23:00:12 10° 5° (N) 2,010 7.3 -19.8°
Sets 23:02:26 0° 8° (N) 2,917 8.4 -19.9°
